Regional Weather Roundup
Issued by NWS

Home | Current Version | Previous Version | Graphics & Text | Print | Product List | Glossary On
Versions: 1 2 3 4 5 6 7 8 9 10 11 12 13 14 15 16 17 18 19 20 21 22 23 24 25 26 27 28 29 30 31 32 33 34 35 36 37 38 39 40 41 42 43 44 45 46 47 48 49 50
000
ASUS43 KBIS 201959
RWRND

NORTH DAKOTA REGIONAL WEATHER ROUNDUP
NATIONAL WEATHER SERVICE BISMARCK ND
300 PM CDT SAT SEP 20 2014

NOTE: "FAIR" INDICATES FEW OR NO CLOUDS BELOW 12,000 FEET WITH NO
SIGNIFICANT WEATHER AND/OR OBSTRUCTIONS TO VISIBILITY.


NDZ001>003-009>011-017-202100-
NORTHWEST NORTH DAKOTA

CITY           SKY/WX    TMP DP  RH WIND       PRES   REMARKS
WILLISTON      PTSUNNY   70  34  26 NW26G35   30.06R
MINOT          SUNNY     70  39  32 W30G41    29.95R
$$

NDZ018>021-031>035-040>046-202100-
SOUTHWEST NORTH DAKOTA

CITY           SKY/WX    TMP DP  RH WIND       PRES   REMARKS
BISMARCK       MOSUNNY   70  45  40 NW21G33   29.99R
GARRISON         N/A     70  37  29 NW23G40   29.97R
HETTINGER ARPT SUNNY     74  34  23 NW32G38   30.09R
$$

NDZ004>008-012>016-024-026-027-054-202100-
NORTHEAST NORTH DAKOTA

CITY           SKY/WX    TMP DP  RH WIND       PRES   REMARKS
GRAND FORKS    CLOUDY    61  54  77 NW21G26   29.79R
DEVILS LAKE    PTSUNNY   64  48  55 NW24G31   29.83S
$$

NDZ022-023-025-028>030-036>039-047>053-202100-
SOUTHEAST NORTH DAKOTA

CITY           SKY/WX    TMP DP  RH WIND       PRES   REMARKS
FARGO          CLOUDY    64  56  75 NW23G30   29.81R
$$




USA.gov is the U.S. government's official web portal to all federal, state and local government web resources and services.